Location: Calvera
(42.3882°N, 0.6137°E)
Time: 20:13:22
(UTC+00:00)

Cosmos 1656 - Pass Details

Date: 28 October 2020
Orbit: 796 x 851 km, 71.1° (Epoch: 23 November)

Event Time Altitude Azimuth Distance (km) Brightness Sun altitude
Exits shadow 03:55:20 69° 164° (SSE) 910 3.7 -28.4°
Drops below altitude 10° 04:00:15 10° 159° (SSE) 2,461 6.2 -27.5°
Sets 04:02:40 0° 159° (SSE) 3,388 7.0 -27.0°
